Date String (YYYY-MM-DD hh:mm:ss) UTC,Instrument flags,absolute air pressure of the measurement (hPa),sample flow rate (lpm),inlet stack bypass flow (lpm),air temperature of the measurement (°C),ambient temperature measured by the external sensor (°C),aerosol sample conditioner tube jacket temperature (°C),OPC LED temperature (°C),internal box temperature (°C),relative humidity of the measurement (%),span deviation,mass concentration of particles derived from Lorenz-Mie calculation of OPC scattering (μg/m³),mass concentration of particles derived from Lorenz-Mie calculation of OPC scattering (μg/m³),mass concentration of particles derived from Lorenz-Mie calculation of OPC scattering (μg/m³)
DateTimeUTC,F1_M11,P_M11,Q1_M11,Q2_M11,T1_M11,T2_M11,T3_M11,T4_M11,T5_M11,U1_M11,ZSPAN_M11,X2_M11,X0_M11,X1_M11
2023-11-04 08:00:00,SystemResetWarning,0833.8,5.00,000.00,027.0,025.9,000.0,035.5,028.4,14.5,0000.0,0001.80,0006.95,0001.21
2023-11-04 08:01:00,SystemResetWarning,0833.7,5.00,000.00,027.0,025.9,000.0,035.5,028.4,14.5,0000.0,0001.77,0005.58,0001.21
2023-11-04 08:02:00,SystemResetWarning,0833.7,5.00,000.00,027.0,025.8,000.0,035.5,028.4,14.5,0000.0,0001.73,0004.74,0001.20
2023-11-04 08:03:00,SystemResetWarning,0833.6,5.00,000.00,027.0,025.8,000.0,035.5,028.4,14.5,0000.0,0001.71,0004.44,0001.20
2023-11-04 08:04:00,SystemResetWarning,0833.7,5.00,000.00,027.0,025.8,000.0,035.5,028.4,14.4,0000.0,0001.75,0004.52,0001.20
2023-11-04 08:05:00,SystemResetWarning,0833.7,5.00,000.00,027.0,025.8,000.0,035.4,028.4,14.4,0000.0,0001.75,0003.73,0001.20
2023-11-04 08:06:00,SystemResetWarning,0833.7,5.01,000.00,027.0,025.8,000.0,035.4,028.4,14.4,0000.0,0001.74,0003.42,0001.20
2023-11-04 08:07:00,SystemResetWarning,0833.8,5.01,000.00,027.0,025.8,000.0,035.4,028.4,14.5,0000.0,0001.74,0003.45,0001.20
2023-11-04 08:08:00,SystemResetWarning,0833.8,4.99,000.00,027.0,025.8,000.0,035.4,028.4,14.4,0000.0,0001.74,0004.02,0001.21
2023-11-04 08:09:00,SystemResetWarning,0833.7,4.99,000.00,027.0,025.8,000.0,035.4,028.4,14.5,0000.0,0001.73,0004.05,0001.20
2023-11-04 08:10:00,SystemResetWarning,0833.8,5.00,000.00,027.0,025.8,000.0,035.4,028.4,14.5,0000.0,0001.70,0003.98,0001.19
2023-11-04 08:11:00,SystemResetWarning,0833.7,5.01,000.00,027.0,025.8,000.0,035.4,028.4,14.5,0000.0,0001.66,0004.90,0001.19
2023-11-04 08:12:00,SystemResetWarning,0833.7,5.00,000.00,027.0,025.8,000.0,035.4,028.4,14.5,0000.0,0001.66,0005.15,0001.19
2023-11-04 08:13:00,SystemResetWarning,0833.8,5.01,000.00,027.0,025.8,000.0,035.4,028.4,14.5,0000.0,0001.63,0005.00,0001.19
2023-11-04 08:14:00,SystemResetWarning,0833.8,4.99,000.00,027.0,025.8,000.0,035.4,028.4,14.5,0000.0,0001.59,0004.84,0001.17
2023-11-04 08:15:00,SystemResetWarning,0833.8,4.99,000.00,027.0,025.8,000.0,035.4,028.4,14.5,0000.0,0001.56,0004.88,0001.17
2023-11-04 08:16:00,SystemResetWarning,0833.8,4.99,000.00,027.0,025.8,000.0,035.4,028.4,14.6,0000.0,0001.54,0005.07,0001.16
2023-11-04 08:17:00,SystemResetWarning,0833.8,5.01,000.00,027.0,025.8,000.0,035.4,028.4,14.5,0000.0,0001.53,0005.01,0001.16
2023-11-04 08:18:00,SystemResetWarning,0833.8,5.00,000.00,027.0,025.8,000.0,035.4,028.3,14.5,0000.0,0001.50,0004.88,0001.15
2023-11-04 08:19:00,SystemResetWarning,0833.7,5.01,000.00,027.0,025.8,000.0,035.4,028.3,14.5,0000.0,0001.48,0004.25,0001.16
2023-11-04 08:20:00,SystemResetWarning,0833.7,5.00,000.00,027.0,025.8,000.0,035.4,028.4,14.5,0000.0,0001.46,0004.06,0001.16
2023-11-04 08:21:00,SystemResetWarning,0833.7,4.99,000.00,027.0,025.8,000.0,035.4,028.4,14.5,0000.0,0001.46,0003.88,0001.17
2023-11-04 08:22:00,SystemResetWarning,0833.8,5.00,000.00,027.0,025.8,000.0,035.4,028.4,14.6,0000.0,0001.46,0002.86,0001.17
2023-11-04 08:23:00,SystemResetWarning,0833.8,5.00,000.00,027.0,025.8,000.0,035.4,028.4,14.7,0000.0,0001.48,0002.83,0001.18
2023-11-04 08:24:00,SystemResetWarning,0833.8,5.00,000.00,027.0,025.8,000.0,035.4,028.3,14.5,0000.0,0001.51,0002.93,0001.18
2023-11-04 08:25:00,SystemResetWarning,0833.8,5.00,000.00,026.9,025.8,000.0,035.4,028.3,14.5,0000.0,0001.56,0003.12,0001.20
2023-11-04 08:26:00,SystemResetWarning,0833.7,5.00,000.00,026.9,025.8,000.0,035.4,028.3,14.5,0000.0,0001.53,0002.89,0001.20
2023-11-04 08:27:00,SystemResetWarning,0833.7,5.00,000.00,026.9,025.8,000.0,035.4,028.3,14.5,0000.0,0001.51,0002.82,0001.20
2023-11-04 08:28:00,SystemResetWarning,0833.7,5.01,000.00,026.9,025.7,000.0,035.4,028.3,14.6,0000.0,0001.56,0003.20,0001.20
2023-11-04 08:29:00,SystemResetWarning,0833.8,5.00,000.00,026.9,025.7,000.0,035.4,028.3,14.7,0000.0,0001.57,0003.24,0001.21
2023-11-04 08:30:00,SystemResetWarning,0833.7,5.00,000.00,026.9,025.7,000.0,035.4,028.3,14.6,0000.0,0001.58,0003.38,0001.19
2023-11-04 08:31:00,SystemResetWarning,0833.7,5.01,000.00,026.9,025.7,000.0,035.4,028.3,14.5,0000.0,0001.60,0004.86,0001.21
2023-11-04 08:32:00,SystemResetWarning,0833.7,5.00,000.00,026.9,025.7,000.0,035.3,028.3,14.5,0000.0,0001.63,0004.88,0001.21
2023-11-04 08:33:00,SystemResetWarning,0833.7,5.00,000.00,026.9,025.7,000.0,035.3,028.3,14.6,0000.0,0001.63,0004.83,0001.21
2023-11-04 08:34:00,SystemResetWarning,0833.7,4.99,000.00,026.9,025.7,000.0,035.3,028.2,14.5,0000.0,0001.63,0004.82,0001.20
2023-11-04 08:35:00,SystemResetWarning,0833.6,4.99,000.00,026.9,025.7,000.0,035.3,028.2,14.5,0000.0,0001.64,0005.04,0001.20
2023-11-04 08:36:00,SystemResetWarning,0833.7,5.01,000.00,026.9,025.7,000.0,035.3,028.3,14.5,0000.0,0001.66,0005.33,0001.20
2023-11-04 08:37:00,SystemResetWarning,0833.7,5.01,000.00,026.9,025.7,000.0,035.3,028.2,14.5,0000.0,0001.69,0005.65,0001.20
2023-11-04 08:38:00,SystemResetWarning,0833.7,5.00,000.00,026.9,025.6,000.0,035.3,028.2,14.6,0000.0,0001.74,0006.13,0001.20
2023-11-04 08:39:00,SystemResetWarning,0833.7,5.00,000.00,026.9,025.6,000.0,035.3,028.2,14.6,0000.0,0001.71,0005.79,0001.21
2023-11-04 08:40:00,SystemResetWarning,0833.7,4.99,000.00,026.8,025.6,000.0,035.3,028.2,14.6,0000.0,0001.71,0005.86,0001.21
2023-11-04 08:41:00,SystemResetWarning,0833.6,4.99,000.00,026.8,025.6,000.0,035.3,028.2,14.7,0000.0,0001.72,0006.19,0001.22
2023-11-04 08:42:00,SystemResetWarning,0833.7,4.99,000.00,026.8,025.6,000.0,035.3,028.1,14.8,0000.0,0001.73,0004.58,0001.21
2023-11-04 08:43:00,SystemResetWarning,0833.7,5.00,000.00,026.8,025.6,000.0,035.3,028.2,14.7,0000.0,0001.75,0004.61,0001.20
2023-11-04 08:44:00,SystemResetWarning,0833.7,5.00,000.00,026.8,025.6,000.0,035.3,028.2,14.7,0000.0,0001.75,0004.60,0001.20
2023-11-04 08:45:00,SystemResetWarning,0833.7,5.00,000.00,026.8,025.5,000.0,035.3,028.2,14.6,0000.0,0001.74,0004.77,0001.20
2023-11-04 08:46:00,SystemResetWarning,0833.6,5.00,000.00,026.8,025.5,000.0,035.3,028.1,14.6,0000.0,0001.74,0005.55,0001.20
2023-11-04 08:47:00,SystemResetWarning,0833.6,5.01,000.00,026.8,025.5,000.0,035.2,028.1,14.6,0000.0,0001.70,0005.05,0001.20
2023-11-04 08:48:00,SystemResetWarning,0833.6,5.00,000.00,026.8,025.6,000.0,035.2,028.2,14.6,0000.0,0001.66,0004.87,0001.21
2023-11-04 08:49:00,SystemResetWarning,0833.6,5.01,000.00,026.8,025.6,000.0,035.2,028.2,14.6,0000.0,0001.62,0004.01,0001.21
2023-11-04 08:50:00,SystemResetWarning,0833.7,5.00,000.00,026.8,025.6,000.0,035.2,028.1,14.7,0000.0,0001.62,0004.03,0001.21
2023-11-04 08:51:00,SystemResetWarning,0833.7,5.00,000.00,026.8,025.5,000.0,035.2,028.1,14.7,0000.0,0001.63,0004.08,0001.21
2023-11-04 08:52:00,SystemResetWarning,0833.7,5.01,000.00,026.7,025.5,000.0,035.2,028.1,14.6,0000.0,0001.61,0003.75,0001.21
2023-11-04 08:53:00,SystemResetWarning,0833.7,5.00,000.00,026.7,025.5,000.0,035.2,028.0,14.7,0000.0,0001.61,0003.78,0001.23
2023-11-04 08:54:00,SystemResetWarning,0833.6,5.00,000.00,026.7,025.5,000.0,035.2,028.1,14.6,0000.0,0001.59,0004.31,0001.23
2023-11-04 08:55:00,SystemResetWarning,0833.5,5.00,000.00,026.7,025.5,000.0,035.2,028.1,14.6,0000.0,0001.61,0004.48,0001.23
2023-11-04 08:56:00,SystemResetWarning,0833.6,5.00,000.00,026.7,025.6,000.0,035.2,028.2,14.7,0000.0,0001.64,0004.56,0001.23
2023-11-04 08:57:00,SystemResetWarning,0833.7,5.00,000.00,026.7,025.6,000.0,035.2,028.2,14.7,0000.0,0001.66,0003.50,0001.24
2023-11-04 08:58:00,SystemResetWarning,0833.7,5.00,000.00,026.7,025.6,000.0,035.2,028.1,14.8,0000.0,0001.66,0003.49,0001.24
2023-11-04 08:59:00,SystemResetWarning,0833.6,5.00,000.00,026.7,025.6,000.0,035.2,028.1,14.8,0000.0,0001.68,0003.66,0001.23
